Tracking 19908 objects as of 18-Oct-2019
HD Live streaming from Space Station
objects crossing your sky now

GSAT0204

Track GSAT0204 now!
GSAT0204 is classified as:


NORAD ID: 40545
Int'l Code: 2015-017B
Perigee: 23,219.5 km
Apogee: 23,238.8 km
Inclination: 56.3 °
Period: 844.7 minutes
Semi major axis: 29600 km
RCS: Unknown
Launch date: March 27, 2015
Source: European Space Agency (ESA)
Launch site: FRENCH GUIANA (FRGUI)

GSAT0203 is a member of European's Galileo navigation satellite constellation.
aabbcc
Your satellite tracking list
Your tracking list is empty




NASA's NSSDC Master Catalog

Two Line Element Set (TLE):
1 40545U 15017B   19288.90849397 -.00000050 +00000-0 +00000-0 0  9995
2 40545 056.2648 048.2336 0003248 183.7341 176.2554 01.70475528028336
Source of the keplerian elements: AFSPC